Simultaneous Nadir Overpasses (SNOs) Predictions

Prediction of SNOs near equator between AQUA and NPP Satellite Orbit:

Table of predicted SNOs near equator for the next 14.0 days since TLE Epoch: 2/5/2016
Index Date (AQUA) Time (AQUA) AQUA Lat,Lon Date (NPP) Time (NPP) NPP Lat,Lon Distance(km) Time Diff (sec)
1 02/07/2016 07:07:58 22.26, 93.55 02/07/2016 06:58:08 22.26, 93.56 1.22 590
2 02/07/2016 07:51:37 -1.53, -94.21 02/07/2016 07:42:55 -1.51, -94.29 9.07 522
3 02/07/2016 08:39:51 -3.11, 74.40 02/07/2016 08:32:25 -3.17, 74.05 39.27 446
4 02/07/2016 09:27:59 7.59,-116.99 02/07/2016 09:21:48 7.71,-117.60 68.79 371
5 02/07/2016 10:16:13 -12.23, 51.64 02/07/2016 10:11:18 -12.38, 50.76 97.30 295
6 02/09/2016 23:22:17 14.56,-148.80 02/09/2016 23:12:48 14.56,-148.81 1.21 569
7 02/10/2016 00:07:40 -0.10, 21.98 02/09/2016 23:59:22 -0.09, 21.80 19.59 498
8 02/10/2016 00:55:55 -4.47,-169.42 02/10/2016 00:48:52 -4.59,-169.86 49.68 423
9 02/10/2016 01:44:03 8.96, -0.80 02/10/2016 01:38:15 9.13, -1.50 78.89 348
10 02/12/2016 15:35:55 4.33, -30.69 02/12/2016 15:26:46 4.33, -30.70 1.31 549
11 02/12/2016 16:23:44 1.31, 138.17 02/12/2016 16:15:49 1.39, 137.91 30.11 475
12 02/12/2016 17:11:58 -5.95, -53.22 02/12/2016 17:05:19 -6.06, -53.75 59.95 399
13 02/12/2016 18:00:06 10.43, 115.41 02/12/2016 17:54:42 10.61, 114.61 88.78 324
14 02/15/2016 07:08:07 -23.36, -86.67 02/15/2016 06:58:13 -23.36, -86.68 1.17 594
15 02/15/2016 07:51:39 1.72, 85.76 02/15/2016 07:42:53 1.68, 85.67 10.80 526
16 02/15/2016 08:39:47 2.76,-105.63 02/15/2016 08:32:16 2.86,-105.98 40.63 451
17 02/15/2016 09:28:01 -7.40, 62.98 02/15/2016 09:21:46 -7.54, 62.36 70.28 375
18 02/15/2016 10:16:09 11.89,-128.38 02/15/2016 10:11:09 12.08,-129.27 98.65 300
19 02/17/2016 23:21:30 -12.29, 31.76 02/17/2016 23:11:56 -12.29, 31.76 0.41 574
20 02/18/2016 00:07:41 0.23,-158.03 02/17/2016 23:59:20 0.21,-158.22 21.41 501
21 02/18/2016 00:55:49 4.26, 10.58 02/18/2016 00:48:43 4.33, 10.13 51.27 426
22 02/18/2016 01:44:04 -8.84, 179.19 02/18/2016 01:38:13 -9.00, 178.47 80.61 351




NCC Satellite Simultaneous Nadir Overpasses (SNOs) Prediction Service
